This demonstration page uses our WeatherBlox Daily Observations layout. Learn more.

Left ArrowRight Arrow

34.74481, -87.66753

Hourly Observations for January 9, 2022

Temp ( °F °C ) Dew Point ( °F °C ) Humidity (%) Winds ( mph kmh ) Pressure ( in mb ) Visibility ( mi km ) Precip ( " mm )
12:28 am 00:28 Cloudy 54 12.2 40 4.4 59 59 SSE 9 15 30.24 1024 10 16 0.00 0.00
12:53 am 00:53 Cloudy 54 12.2 41 5 62 62 SSE 12 19 30.24 1024 10 16 0.00 0.00
1:39 am 01:39 Cloudy 55 12.8 43 6.1 64 64 SSE 14 22 30.22 1023 10 16 0.00 0.00
1:53 am 01:53 Cloudy with Light Rain 55 12.8 44 6.7 67 67 SSE 13 20 30.21 1023 10 16 0.00 0.00
2:53 am 02:53 Cloudy with Light Rain 55 12.8 46 7.8 72 72 SSE 9 15 30.20 1023 9 14 0.00 0.00
3:17 am 03:17 Cloudy 54 12.2 47 8.3 77 77 SSE 12 19 30.19 1022 10 16 0.00 0.00
3:53 am 03:53 Cloudy 55 12.8 48 8.9 77 77 SSE 9 15 30.19 1022 10 16 0.00 0.00
4:22 am 04:22 Cloudy with Light Rain 55 12.8 49 9.4 80 80 SSE 10 17 30.19 1022 10 16 0.01 0.25
4:53 am 04:53 Cloudy 54 12.2 49 9.4 83 83 SE 10 17 30.19 1022 10 16 0.02 0.51
5:53 am 05:53 Cloudy 55 12.8 49 9.4 80 80 SSE 12 19 30.16 1021 10 16 0.00 0.00
6:53 am 06:53 Cloudy with Light Rain 55 12.8 50 10 83 83 SSE 10 17 30.16 1022 10 16 0.00 0.00
7:53 am 07:53 Cloudy with Light Rain 56 13.3 52 11.1 87 87 S 12 19 30.15 1021 6 10 0.03 0.76
8:06 am 08:06 Cloudy with Heavy Rain 56 13.3 52 11.1 87 87 S 12 19 30.17 1022 2 3 0.07 1.78
8:11 am 08:11 Cloudy with Light Rain 56 13.3 52 11.1 87 87 S 10 17 30.16 1021 2 3 0.07 1.78
8:19 am 08:19 Cloudy with Light Rain 56 13.3 53 11.7 90 90 S 14 22 30.17 1022 9 14 0.07 1.78
8:53 am 08:53 Cloudy 57 13.9 53 11.7 87 87 S 12 19 30.15 1021 10 16 0.07 1.78
9:53 am 09:53 Cloudy with Light Rain 58 14.4 54 12.2 87 87 S 10 17 30.15 1021 7 11 0.01 0.25
9:59 am 09:59 Cloudy with Rain 58 14.4 55 12.8 90 90 S 13 20 30.15 1021 2 3 0.11 2.79
10:11 am 10:11 Cloudy with Heavy Rain 57 13.9 55 12.8 93 93 WSW 15 24 30.15 1021 1 1 0.40 10.16
10:18 am 10:18 Cloudy with Heavy Rain 57 13.9 55 12.8 93 93 SW 9 15 30.17 1022 1 2 0.47 11.94
10:25 am 10:25 Cloudy with Rain 57 13.9 55 12.8 93 93 SSW 7 11 30.16 1021 3 5 0.49 12.45
10:53 am 10:53 Cloudy with Rain 57 13.9 56 13.3 96 96 W 8 13 30.16 1021 3 5 0.55 13.97
10:56 am 10:56 Cloudy with Rain 57 13.9 55 12.8 93 93 WNW 7 11 30.16 1021 3 4 0.01 0.25
11:12 am 11:12 Cloudy with Light Rain 57 13.9 55 12.8 93 93 SW 3 6 30.16 1021 5 8 0.03 0.76
11:45 am 11:45 Cloudy 58 14.4 56 13.3 93 93 Calm 30.15 1021 10 16 0.04 1.02
11:53 am 11:53 Cloudy 58 14.4 57 13.9 97 97 Calm 30.14 1021 8 13 0.04 1.02
12:28 pm 12:28 Cloudy with Rain 59 15 57 13.9 93 93 SSW 3 6 30.13 1020 3 4 0.05 1.27
12:53 pm 12:53 Cloudy with Light Rain 60 15.6 58 14.4 93 93 SW 8 13 30.11 1020 4 6 0.10 2.54
1:29 pm 13:29 Cloudy 60 15.6 58 14.4 93 93 NNW 6 9 30.13 1020 7 11 0.02 0.51
1:36 pm 13:36 Cloudy with Mist and Fog 60 15.6 58 14.4 93 93 NW 8 13 30.13 1020 6 10 0.02 0.51
1:53 pm 13:53 Cloudy with Light Rain 59 15 56 13.3 90 90 NNW 6 9 30.13 1020 9 14 0.03 0.76
2:08 pm 14:08 Cloudy with Light Rain 58 14.4 56 13.3 93 93 NNW 5 7 30.14 1021 3 4 0.02 0.51
2:23 pm 14:23 Cloudy with Light Rain 58 14.4 56 13.3 93 93 N 6 9 30.15 1021 3 5 0.06 1.52
2:39 pm 14:39 Cloudy with Rain 58 14.4 56 13.3 93 93 NNW 7 11 30.16 1021 2 3 0.09 2.29
2:47 pm 14:47 Cloudy with Rain 57 14 55 13 94 94 N 6 9 30.17 1022 2 3 0.12 3.05
2:53 pm 14:53 Cloudy with Rain 58 14.4 56 13.3 93 93 NNW 7 11 30.17 1022 3 4 0.13 3.30
3:02 pm 15:02 Cloudy with Light Rain 58 14.4 56 13.3 93 93 NNW 7 11 30.18 1022 5 8 0.01 0.25
3:16 pm 15:16 Cloudy with Light Rain 58 14.4 56 13.3 93 93 NNW 7 11 30.19 1022 6 10 0.03 0.76
3:27 pm 15:27 Cloudy with Light Rain 57 13.9 55 12.8 93 93 N 12 19 30.20 1023 8 13 0.03 0.76
3:34 pm 15:34 Cloudy with Light Rain 57 13.9 54 12.2 90 90 N 9 15 30.21 1023 9 14 0.03 0.76
3:53 pm 15:53 Cloudy 54 12.2 51 10.6 90 90 N 14 22 30.22 1023 8 13 0.03 0.76
4:15 pm 16:15 Cloudy with Light Rain 52 11.1 49 9.4 89 89 NNE 13 20 30.25 1024 2 3 0.00 0.00
4:22 pm 16:22 Cloudy with Light Rain 51 10.6 48 8.9 89 89 NNE 22 35 30.26 1025 3 4 0.00 0.00
4:30 pm 16:30 Cloudy 51 10.6 48 8.9 89 89 NNE 13 20 30.27 1025 10 16 0.00 0.00
4:41 pm 16:41 Cloudy 50 10 47 8.3 89 89 NNE 12 19 30.28 1025 10 16 0.00 0.00
4:53 pm 16:53 Cloudy 49 9.4 46 7.8 90 90 NNW 16 26 30.28 1026 10 16 0.00 0.00
5:31 pm 17:31 Cloudy 47 8.3 40 4.4 77 77 N 13 20 30.33 1027 10 16 0.00 0.00
5:39 pm 17:39 Cloudy 46 7.8 37 2.8 71 71 NNE 17 28 30.34 1028 10 16 0.00 0.00
5:53 pm 17:53 Cloudy 45 7.2 35 1.7 68 68 NNE 16 26 30.33 1027 10 16 0.00 0.00
6:53 pm 18:53 Cloudy 44 6.7 31 -0.6 60 60 N 12 19 30.37 1028 10 16 0.00 0.00
7:53 pm 19:53 Cloudy 44 6.7 27 -2.8 51 51 NNE 13 20 30.40 1030 10 16 0.00 0.00
8:53 pm 20:53 Cloudy 43 6.1 27 -2.8 53 53 NNE 12 19 30.44 1031 10 16 0.00 0.00
9:53 pm 21:53 Clear 42 5.6 27 -2.8 55 55 NNE 12 19 30.44 1031 10 16 0.00 0.00
10:53 pm 22:53 Clear 40 4.4 27 -2.8 60 60 NNE 10 17 30.44 1031 10 16 0.00 0.00
11:53 pm 23:53 Clear 39 3.9 26 -3.3 60 60 N 10 17 30.46 1032 10 16 0.00 0.00

Powered by AerisWeather